Starlink 6149

operational
NORAD ID: 57122 Int'l Des: 2023-090 Owner: SPXS Country: US Constellation: starlink
LEOCIRCULAR

Über Starlink 6149

Beschreibung wird geladen...

Live-Position

3D-Globus wird geladen...

Nächste Überflüge

Höhenverlauf

Altitude vs Time

uPlot chart will show altitude changes over time

Zweizeiliger Elementsatz

1 57122U 23090X 26037.16383358 .00000171 00000-0 27694-4 0 9997
2 57122 43.0008 85.7288 0001005 274.0021 86.0707 15.02533817145670
Epoch: 6. Feb. 2026 • Age: 12 hours

Aktueller Status

Höhe 561.3 km
Geschwindigkeit 7.58 km/s
Subsatellitenpunkt -12.95°S, 99.33°W
Startdatum 23. Juni 2023
Alter 2.6 years
Typ internet

Technische Details

Klassifizierung Payload
Masse 305.00 kg
Trockenmasse 290.00 kg
Gesamtmasse 305.00 kg
Länge 0.20 m
Durchmesser 2.80 m
Spannweite 9.00 m
Form Box + pan
Hersteller SPXS
Bus-Typ Starlink
Phasenstatus In Orbit
Besitzer/Staat SPXS/US

Große Konstellationen

Loading constellations...